{"data":{"norad_id":69922,"epoch":"2026-09-20T04:31:01.831296Z","epoch_age_seconds":44707,"freshness":"FRESH","line1":"1 69922U 26156BF  26263.18821564  .00000396  00000+0  44690-4 0  9996","line2":"2 69922  97.7436 162.3946 0005537 270.1423  89.9161 14.91884490 11167","mean_motion":14.9188449,"eccentricity":0.0005537,"inclination_deg":97.7436,"raan_deg":162.3946,"arg_perigee_deg":270.1423,"mean_anomaly_deg":89.9161,"bstar":4.469e-5,"rev_number":1116,"period_min":96.522218017026,"perigee_km":588.20042882872,"apogee_km":595.91922479473,"semimajor_km":6970.1968268117,"source":"CELESTRAK","updated_at":"2026-09-20T09:00:25.182506Z"}}